• Em Portugal
  • Lista de países
  • Para 7 dias
  • Temperatura da água
  • Mapas de satélite
  • Mapa do tempo
  • Widgets de tempo
  • user-avatar
    Iniciar Sessão

    Previsão horária em Cuiaba

    Hoje, 20 Junho, Quarta-feira

    Tempo Temperatura Precipitação Vento Pressão Humidade
    00:00 +23°C° 0 mm 1 m/s 743 mmHg 55%
    01:00 +22°C° 0 mm 1 m/s 743 mmHg 57%
    02:00 +22°C° 0 mm 1 m/s 743 mmHg 58%
    03:00 +21°C° 0 mm 1 m/s 743 mmHg 59%
    04:00 +21°C° 0 mm 1 m/s 743 mmHg 60%
    05:00 +21°C° 0 mm 1 m/s 743 mmHg 61%
    06:00 +22°C° 0 mm 1 m/s 744 mmHg 58%
    07:00 +24°C° 0 mm 1 m/s 744 mmHg 54%
    08:00 +25°C° 0 mm 1 m/s 745 mmHg 50%
    09:00 +28°C° 0 mm 1 m/s 745 mmHg 44%
    10:00 +31°C° 0 mm 2 m/s 745 mmHg 37%
    11:00 +34°C° 0 mm 2 m/s 745 mmHg 30%
    12:00 +35°C° 0 mm 2 m/s 745 mmHg 28%
    13:00 +35°C° 0 mm 2 m/s 744 mmHg 27%
    14:00 +36°C° 0 mm 2 m/s 743 mmHg 25%
    15:00 +33°C° 0 mm 1 m/s 743 mmHg 29%
    16:00 +32°C° 0 mm 1 m/s 742 mmHg 33%
    17:00 +30°C° 0 mm 1 m/s 742 mmHg 38%
    18:00 +28°C° 0 mm 1 m/s 742 mmHg 40%
    19:00 +27°C° 0 mm 1 m/s 742 mmHg 43%
    20:00 +25°C° 0 mm 1 m/s 743 mmHg 46%
    21:00 +25°C° 0 mm 1 m/s 743 mmHg 48%
    22:00 +24°C° 0 mm 1 m/s 743 mmHg 50%
    23:00 +24°C° 0 mm 1 m/s 743 mmHg 52%

    Amanhã, 21 Junho, Quinta-feira

    Tempo Temperatura Precipitação Vento Pressão Humidade
    00:00 +23°C° 0 mm 1 m/s 743 mmHg 53%
    01:00 +23°C° 0 mm 1 m/s 743 mmHg 55%
    02:00 +22°C° 0 mm 1 m/s 742 mmHg 56%
    03:00 +22°C° 0 mm 1 m/s 742 mmHg 58%
    04:00 +22°C° 0 mm 1 m/s 742 mmHg 59%
    05:00 +22°C° 0 mm 1 m/s 742 mmHg 61%
    06:00 +23°C° 0 mm 1 m/s 743 mmHg 58%
    07:00 +24°C° 0 mm 1 m/s 744 mmHg 56%
    08:00 +26°C° 0 mm 2 m/s 744 mmHg 53%
    09:00 +28°C° 0 mm 2 m/s 745 mmHg 46%
    10:00 +31°C° 0 mm 2 m/s 745 mmHg 38%
    11:00 +35°C° 0 mm 3 m/s 745 mmHg 30%
    12:00 +35°C° 0 mm 2 m/s 744 mmHg 29%
    13:00 +36°C° 0 mm 2 m/s 743 mmHg 27%
    14:00 +36°C° 0 mm 1 m/s 742 mmHg 25%
    15:00 +34°C° 0 mm 1 m/s 742 mmHg 29%
    16:00 +32°C° 0 mm 1 m/s 742 mmHg 33%
    17:00 +28°C° 0 mm 0 m/s 742 mmHg 37%
    18:00 +29°C° 0 mm 1 m/s 742 mmHg 40%
    19:00 +27°C° 0 mm 1 m/s 743 mmHg 42%
    20:00 +26°C° 0 mm 1 m/s 743 mmHg 44%
    21:00 +26°C° 0 mm 1 m/s 743 mmHg 46%
    22:00 +25°C° 0 mm 1 m/s 743 mmHg 47%
    23:00 +25°C° 0 mm 1 m/s 744 mmHg 49%

    Depois de amanhã, 22 Junho, Sexta-feira

    Tempo Temperatura Precipitação Vento Pressão Humidade
    00:00 +25°C° 0 mm 1 m/s 743 mmHg 49%
    01:00 +25°C° 0 mm 1 m/s 743 mmHg 49%
    02:00 +23°C° 0 mm 0 m/s 743 mmHg 50%
    03:00 +23°C° 0 mm 0 m/s 743 mmHg 50%
    04:00 +23°C° 0 mm 0 m/s 743 mmHg 50%
    05:00 +25°C° 0 mm 1 m/s 743 mmHg 50%
    06:00 +25°C° 0 mm 1 m/s 744 mmHg 50%
    07:00 +26°C° 0 mm 1 m/s 744 mmHg 49%
    08:00 +26°C° 0 mm 1 m/s 744 mmHg 49%
    09:00 +28°C° 0 mm 1 m/s 744 mmHg 45%
    10:00 +30°C° 0 mm 2 m/s 744 mmHg 41%
    11:00 +31°C° 0 mm 2 m/s 744 mmHg 37%
    12:00 +32°C° 0 mm 2 m/s 743 mmHg 33%
    13:00 +34°C° 0 mm 2 m/s 742 mmHg 30%
    14:00 +35°C° 0 mm 2 m/s 741 mmHg 26%
    15:00 +34°C° 0 mm 2 m/s 741 mmHg 30%
    16:00 +31°C° 0 mm 1 m/s 741 mmHg 34%
    17:00 +30°C° 0 mm 1 m/s 740 mmHg 37%
    18:00 +28°C° 0 mm 1 m/s 741 mmHg 39%
    19:00 +27°C° 0 mm 1 m/s 741 mmHg 41%
    20:00 +25°C° 0 mm 1 m/s 741 mmHg 43%
    21:00 +25°C° 0 mm 1 m/s 741 mmHg 44%
    22:00 +24°C° 0 mm 2 m/s 741 mmHg 46%
    23:00 +24°C° 0 mm 2 m/s 741 mmHg 47%

    23 Junho, Sábado

    Tempo Temperatura Precipitação Vento Pressão Humidade
    00:00 +23°C° 0 mm 2 m/s 741 mmHg 48%
    01:00 +23°C° 0 mm 2 m/s 741 mmHg 49%
    02:00 +23°C° 0 mm 2 m/s 740 mmHg 51%
    03:00 +21°C° 0 mm 2 m/s 740 mmHg 52%
    04:00 +21°C° 0 mm 2 m/s 741 mmHg 53%
    05:00 +20°C° 0 mm 2 m/s 741 mmHg 54%
    06:00 +23°C° 0 mm 2 m/s 741 mmHg 51%
    07:00 +25°C° 0 mm 2 m/s 742 mmHg 48%
    08:00 +26°C° 0 mm 3 m/s 742 mmHg 45%
    09:00 +29°C° 0 mm 3 m/s 742 mmHg 39%
    10:00 +32°C° 0 mm 4 m/s 742 mmHg 34%
    11:00 +35°C° 0 mm 5 m/s 742 mmHg 28%
    12:00 +35°C° 0 mm 4 m/s 741 mmHg 27%
    13:00 +36°C° 0 mm 4 m/s 740 mmHg 26%
    14:00 +36°C° 0 mm 3 m/s 740 mmHg 24%
    15:00 +35°C° 0 mm 3 m/s 739 mmHg 28%
    16:00 +32°C° 0 mm 2 m/s 739 mmHg 32%
    17:00 +30°C° 0 mm 1 m/s 739 mmHg 36%
    18:00 +29°C° 0 mm 1 m/s 739 mmHg 38%
    19:00 +28°C° 0 mm 2 m/s 740 mmHg 40%
    20:00 +26°C° 0 mm 2 m/s 740 mmHg 42%
    21:00 +26°C° 0 mm 2 m/s 740 mmHg 44%
    22:00 +25°C° 0 mm 2 m/s 741 mmHg 45%
    23:00 +24°C° 0 mm 2 m/s 741 mmHg 47%

    24 Junho, Domingo

    Tempo Temperatura Precipitação Vento Pressão Humidade
    00:00 +24°C° 0 mm 2 m/s 741 mmHg 48%
    01:00 +23°C° 0 mm 2 m/s 741 mmHg 50%
    02:00 +23°C° 0 mm 2 m/s 741 mmHg 51%
    03:00 +23°C° 0 mm 2 m/s 741 mmHg 52%
    04:00 +23°C° 0 mm 1 m/s 741 mmHg 53%
    05:00 +22°C° 0 mm 1 m/s 742 mmHg 53%
    06:00 +24°C° 0 mm 1 m/s 743 mmHg 51%
    07:00 +25°C° 0 mm 1 m/s 743 mmHg 49%
    08:00 +26°C° 0 mm 1 m/s 744 mmHg 46%
    09:00 +29°C° 0 mm 1 m/s 744 mmHg 40%
    10:00 +32°C° 0 mm 2 m/s 744 mmHg 35%
    11:00 +36°C° 0 mm 2 m/s 745 mmHg 29%
    12:00 +36°C° 0 mm 1 m/s 744 mmHg 27%
    13:00 +37°C° 0 mm 1 m/s 743 mmHg 25%
    14:00 +37°C° 0 mm 1 m/s 742 mmHg 23%
    15:00 +35°C° 0 mm 1 m/s 742 mmHg 27%
    16:00 +33°C° 0 mm 1 m/s 742 mmHg 31%
    17:00 +31°C° 0 mm 1 m/s 741 mmHg 35%
    18:00 +30°C° 0 mm 1 m/s 742 mmHg 37%
    19:00 +28°C° 0 mm 1 m/s 742 mmHg 39%
    20:00 +27°C° 0 mm 1 m/s 742 mmHg 41%
    21:00 +26°C° 0 mm 1 m/s 743 mmHg 44%
    22:00 +26°C° 0 mm 2 m/s 743 mmHg 47%
    23:00 +25°C° 0 mm 2 m/s 743 mmHg 50%

    25 Junho, Segunda-feira

    Tempo Temperatura Precipitação Vento Pressão Humidade
    00:00 +24°C° 0 mm 2 m/s 743 mmHg 57%
    01:00 +23°C° 0 mm 2 m/s 743 mmHg 63%
    02:00 +23°C° 0 mm 2 m/s 743 mmHg 70%
    03:00 +21°C° 0 mm 2 m/s 743 mmHg 76%
    04:00 +20°C° 0 mm 2 m/s 743 mmHg 82%
    05:00 +19°C° 0 mm 2 m/s 743 mmHg 88%
    06:00 +20°C° 0 mm 2 m/s 744 mmHg 85%
    07:00 +21°C° 0 mm 2 m/s 744 mmHg 81%
    08:00 +23°C° 0 mm 2 m/s 745 mmHg 78%
    09:00 +25°C° 0 mm 2 m/s 744 mmHg 70%
    10:00 +26°C° 0 mm 2 m/s 744 mmHg 63%
    11:00 +28°C° 0 mm 2 m/s 744 mmHg 55%
    12:00 +30°C° 0 mm 2 m/s 743 mmHg 50%
    13:00 +31°C° 0 mm 1 m/s 742 mmHg 45%
    14:00 +33°C° 0 mm 1 m/s 741 mmHg 40%
    15:00 +31°C° 0 mm 1 m/s 741 mmHg 44%
    16:00 +30°C° 0 mm 2 m/s 741 mmHg 49%
    17:00 +28°C° 0 mm 2 m/s 741 mmHg 53%
    18:00 +27°C° 0 mm 2 m/s 741 mmHg 58%
    19:00 +25°C° 0 mm 2 m/s 741 mmHg 63%
    20:00 +24°C° 0 mm 1 m/s 741 mmHg 68%
    21:00 +23°C° 0 mm 1 m/s 742 mmHg 70%
    22:00 +22°C° 0 mm 1 m/s 742 mmHg 72%
    23:00 +22°C° 0 mm 1 m/s 742 mmHg 74%
    Mostrar mais